Location: Rounton
(54.4000°N, 1.3500°W)
Time: 14:48:33
(UTC+00:00)

Transit 2A - Pass Details

Date: 07 December 2021
Orbit: 591 x 967 km, 66.7° (Epoch: 21 January)

Event Time Altitude Azimuth Distance (km) Brightness Sun altitude
Rises 05:34:05 0° 310° (NW) 3,618 - -21.5°
Reaches altitude 10° 05:36:50 10° 319° (NW) 2,697 - -21.1°
Exits shadow 05:39:03 21° 332° (NNW) 2,033 7.8 -20.8°
Maximum altitude 05:42:43 38° 26° (NNE) 1,454 7.5 -20.2°
Drops below altitude 10° 05:48:35 10° 93° (E) 2,685 10.0 -19.4°
Sets 05:51:19 0° 102° (ESE) 3,601 11.2 -19.0°
